Weather History for West Palm Beach, FL

Change the Weather History Date:

Tuesday, November 15, 2011

  Actual Average Record
Temperature  
Mean Temperature 80 °F 73 °F  
Max Temperature 84 °F 80 °F 88 °F (2008)
Min Temperature 76 °F 66 °F 45 °F (1969)
Degree Days  
Heating Degree Days 0 0  
Month to date heating degree days 0 0  
Since 1 July heating degree days 0 1  
Cooling Degree Days 15 8  
Month to date cooling degree days 130 137  
Year to date cooling degree days 4419 3758  
Growing Degree Days 30 (Base 50)    
Moisture  
Dew Point 76 °F    
Average Humidity 90    
Maximum Humidity 100    
Minimum Humidity 79    
Precipitation  
Precipitation T in 0.18 in 3.04 in (1994)
Month to date precipitation 0.27 2.67  
Year to date precipitation 45.93 56.87  
Snow  
Snow 0.00 in - - ()
Month to date snowfall 0.0  
Since 1 July snowfall 0.0  
Since 1 September snowfall 0.0  
Snow Depth 0.00 in    
Sea Level Pressure  
Sea Level Pressure 30.04 in    
Wind  
Wind Speed 12 mph (SE)    
Max Wind Speed 21 mph    
Max Gust Speed 24 mph    
Visibility 10 miles    
Events      
T = Trace of Precipitation, MM = Missing Value Source: NWS Daily Summary

Daily Weather History Graph

Daily Weather History Graph

Search for Another Location

Airport:

Trip Planner

Search our weather history database for the weather conditions in past years. The results will help you decide how hot, cold, wet, or windy it might be!

Date:

Astronomy

Nov. 15, 2011 Rise Set
Actual Time 6:39 AM EST 5:30 PM EST
Civil Twilight 6:15 AM EST 5:54 PM EST
Nautical Twilight 5:47 AM EST 6:22 PM EST
Astronomical Twilight 5:19 AM EST 6:50 PM EST
Moon 9:38 PM EST (11/15) 10:34 AM EST (11/15)
Length of Visible Light 11h 39m
Length of Day
10h 50m
Waning Gibbous, 79% of the Moon is Illuminated
Nov 15
Waning Gibbous
Nov 18
Last Quarter
Nov 25
New
Dec 2
First Quarter
Dec 10
Full

Hourly Weather History & Observations

Time (EST) Temp. Heat Index Dew Point Humidity Pressure Visibility Wind Dir Wind Speed Gust Speed Precip Events Conditions
12:23 AM 77.0 °F - 75.2 °F 94% 30.04 in 10.0 mi SE 11.5 mph - N/A   Overcast
12:53 AM 77.0 °F - 75.9 °F 96% 30.04 in 10.0 mi SSE 11.5 mph - 0.01 in   Mostly Cloudy
1:53 AM 77.0 °F - 75.0 °F 94% 30.03 in 10.0 mi SE 10.4 mph - N/A   Mostly Cloudy
2:53 AM 77.0 °F - 75.0 °F 94% 30.02 in 10.0 mi SE 8.1 mph - N/A   Scattered Clouds
3:53 AM 77.0 °F - 75.9 °F 96% 30.01 in 10.0 mi SE 9.2 mph - N/A   Mostly Cloudy
4:53 AM 77.0 °F - 75.9 °F 96% 30.01 in 10.0 mi SSE 6.9 mph - N/A   Mostly Cloudy
5:53 AM 77.0 °F - 75.0 °F 94% 30.03 in 10.0 mi SSE 8.1 mph - N/A   Scattered Clouds
6:53 AM 77.0 °F - 75.0 °F 94% 30.04 in 10.0 mi SSE 8.1 mph - N/A   Scattered Clouds
7:53 AM 79.0 °F - 75.9 °F 90% 30.05 in 10.0 mi SE 10.4 mph - N/A   Scattered Clouds
8:44 AM 80.6 °F 86.2 °F 75.2 °F 84% 30.06 in 10.0 mi SSE 12.7 mph - N/A   Mostly Cloudy
8:53 AM 80.1 °F 85.8 °F 77.0 °F 90% 30.06 in 10.0 mi SE 13.8 mph - N/A   Mostly Cloudy
9:53 AM 81.0 °F 87.9 °F 77.0 °F 88% 30.07 in 10.0 mi SE 18.4 mph - N/A   Mostly Cloudy
10:53 AM 82.9 °F 90.8 °F 75.9 °F 79% 30.07 in 10.0 mi SE 13.8 mph 24.2 mph N/A   Mostly Cloudy
11:53 AM 82.9 °F 90.8 °F 75.9 °F 79% 30.05 in 10.0 mi SE 17.3 mph 24.2 mph N/A   Mostly Cloudy
12:53 PM 82.0 °F 89.4 °F 75.9 °F 82% 30.03 in 10.0 mi SSE 18.4 mph 21.9 mph N/A   Mostly Cloudy
1:53 PM 80.1 °F 85.4 °F 75.9 °F 87% 30.02 in 10.0 mi SSE 15.0 mph - 0.00 in   Mostly Cloudy
2:53 PM 81.0 °F 87.3 °F 75.9 °F 85% 30.01 in 10.0 mi SE 13.8 mph - N/A   Mostly Cloudy
3:32 PM 80.6 °F 86.2 °F 75.2 °F 84% 30.01 in 10.0 mi SSE 13.8 mph - N/A   Scattered Clouds
3:53 PM 81.0 °F 87.3 °F 75.9 °F 85% 30.01 in 10.0 mi SSE 16.1 mph - N/A   Scattered Clouds
4:53 PM 80.1 °F 85.4 °F 75.9 °F 87% 30.01 in 10.0 mi SE 13.8 mph - N/A   Scattered Clouds
5:53 PM 78.1 °F - 75.0 °F 90% 30.02 in 10.0 mi SE 11.5 mph - N/A   Scattered Clouds
6:53 PM 78.1 °F - 75.0 °F 90% 30.03 in 10.0 mi SE 10.4 mph - N/A   Scattered Clouds
7:53 PM 78.1 °F - 75.9 °F 93% 30.04 in 10.0 mi SE 10.4 mph - N/A   Scattered Clouds
8:53 PM 78.1 °F - 75.0 °F 90% 30.05 in 10.0 mi SE 11.5 mph - N/A   Scattered Clouds
9:53 PM 78.1 °F - 75.0 °F 90% 30.05 in 10.0 mi SE 13.8 mph - N/A   Partly Cloudy
10:53 PM 78.1 °F - 75.0 °F 90% 30.05 in 10.0 mi SE 11.5 mph - N/A   Partly Cloudy
11:53 PM 78.1 °F - 75.0 °F 90% 30.05 in 10.0 mi SSE 12.7 mph 18.4 mph N/A   Scattered Clouds